Cedar Falls, IA

3:48 PM CST on January 17, 2017 (GMT -0600)
Waterloo Municipal

Weather History for KALO - April, 2014

Change the Weather History Date:

Wednesday, April 23, 2014

  Actual Average Record
Temperature  
Mean Temperature 46 °F 52 °F  
Max Temperature 50 °F 64 °F 89 °F (1925)
Min Temperature 42 °F 40 °F 19 °F (1927)
Degree Days  
Heating Degree Days 19 13  
Month to date heating degree days 443 409  
Since 1 July heating degree days 7983 6734  
Cooling Degree Days 0 0  
Month to date cooling degree days 2 0  
Year to date cooling degree days 2 0  
Moisture  
Dew Point 34 °F    
Average Humidity 65    
Maximum Humidity 83    
Minimum Humidity 46    
Precipitation  
Precipitation 0.12 in 0.14 in 1.66 in (1948)
Month to date precipitation 5.21 2.71  
Year to date precipitation 9.34 6.59  
Snow  
Snow 0.00 in 0.10 in 1.50 in (1910)
Month to date snowfall 0.4 1.7  
Since 1 July snowfall 58.0 35.2  
Snow Depth 0.00 in    
Sea Level Pressure  
Sea Level Pressure 30.03 in    
Wind  
Wind Speed 15 mph (ESE)    
Max Wind Speed 25 mph    
Max Gust Speed 33 mph    
Visibility 10 miles    
Events Rain    
T = Trace of Precipitation, MM = Missing Value Source: NWS Daily Summary

Daily Weather History Graph

Daily Weather History Graph

Search for Another Location

Airport or City:

Trip Planner

Search our weather history database for the weather conditions in past years. The results will help you decide how hot, cold, wet, or windy it might be!

Date:

Astronomy

Apr. 23, 2014 Rise Set
Actual Time 6:15 AM CDT 8:00 PM CDT
Civil Twilight 5:45 AM CDT 8:30 PM CDT
Nautical Twilight 5:09 AM CDT 9:07 PM CDT
Astronomical Twilight 4:30 AM CDT 9:46 PM CDT
Moon 2:55 AM CDT (4/23) 2:02 PM CDT (4/23)
Length of Visible Light 14h 44m
Length of Day
13h 44m
Waning Crescent, 34% of the Moon is Illuminated
Apr 23
Waning Crescent
Apr 29
New
May 6
First Quarter
May 14
Full
May 21
Last Quarter

Hourly Weather History & Observations

Time (CDT) Temp. Windchill Dew Point Humidity Pressure Visibility Wind Dir Wind Speed Gust Speed Precip Events Conditions
12:54 AM 42.1 °F 38.4 °F 34.0 °F 73% 30.08 in 10.0 mi ENE 5.8 mph - N/A   Clear
1:54 AM 45.0 °F 41.8 °F 33.1 °F 63% 30.08 in 10.0 mi East 5.8 mph - N/A   Overcast
2:54 AM 43.0 °F 38.2 °F 32.0 °F 65% 30.07 in 10.0 mi East 8.1 mph - N/A   Scattered Clouds
3:54 AM 45.0 °F 39.7 °F 30.0 °F 56% 30.09 in 10.0 mi East 10.4 mph - N/A   Overcast
4:54 AM 45.0 °F 38.5 °F 28.9 °F 53% 30.11 in 10.0 mi ESE 13.8 mph - N/A   Overcast
5:54 AM 44.1 °F 37.7 °F 28.9 °F 55% 30.11 in 10.0 mi ESE 12.7 mph - N/A   Overcast
6:54 AM 43.0 °F 36.0 °F 30.0 °F 60% 30.10 in 10.0 mi SE 13.8 mph - N/A   Overcast
7:54 AM 44.1 °F 36.8 °F 30.0 °F 58% 30.13 in 10.0 mi ESE 16.1 mph - N/A   Overcast
8:54 AM 44.1 °F 38.6 °F 30.0 °F 58% 30.14 in 10.0 mi SE 10.4 mph - N/A   Overcast
9:54 AM 44.1 °F 36.8 °F 30.0 °F 58% 30.13 in 10.0 mi SE 16.1 mph - 0.00 in Rain Light Rain
10:54 AM 48.0 °F - 30.0 °F 50% 30.11 in 10.0 mi SE 17.3 mph 24.2 mph 0.00 in   Mostly Cloudy
11:54 AM 48.2 °F - 30.2 °F 50% 30.08 in 10.0 mi SE 15.0 mph - N/A   Mostly Cloudy
12:54 PM 50.0 °F - 30.9 °F 48% 30.08 in 10.0 mi SSE 16.1 mph - N/A   Overcast
1:54 PM 50.0 °F - 30.0 °F 46% 30.07 in 10.0 mi SE 15.0 mph - N/A   Overcast
2:54 PM 46.4 °F 39.5 °F 37.4 °F 71% 30.03 in 10.0 mi ESE 17.3 mph - N/A Rain Light Rain
3:54 PM 46.0 °F 39.0 °F 36.0 °F 68% 29.99 in 10.0 mi SE 17.3 mph 26.5 mph 0.00 in Rain Light Rain
4:54 PM 45.0 °F 38.2 °F 39.0 °F 80% 29.97 in 10.0 mi SE 15.0 mph - 0.04 in Rain Light Rain
5:54 PM 45.0 °F 37.9 °F 39.0 °F 80% 29.97 in 10.0 mi SE 16.1 mph 25.3 mph 0.01 in Rain Light Rain
6:54 PM 45.0 °F 37.1 °F 39.0 °F 80% 29.94 in 10.0 mi ESE 19.6 mph 24.2 mph 0.00 in   Overcast
7:54 PM 45.0 °F 37.9 °F 39.0 °F 80% 29.92 in 10.0 mi ESE 16.1 mph - N/A   Overcast
8:54 PM 45.0 °F 37.6 °F 37.9 °F 76% 29.90 in 10.0 mi ESE 17.3 mph 27.6 mph N/A   Overcast
9:54 PM 46.0 °F 39.0 °F 37.9 °F 73% 29.88 in 10.0 mi ESE 17.3 mph 27.6 mph N/A   Overcast
10:54 PM 46.0 °F 38.3 °F 37.9 °F 73% 29.88 in 10.0 mi ESE 20.7 mph 26.5 mph 0.00 in Rain Light Rain
11:54 PM 46.0 °F 38.8 °F 39.0 °F 76% 29.91 in 10.0 mi ESE 18.4 mph 23.0 mph 0.03 in Rain Light Rain